Powrót do katalogu

COSMOS 414

AktywnyMilitariaLEO
NORAD 5213·PAYLOAD·🇷🇺 Russia

Wystrzelony May 7, 1971 z Plesetsk Cosmodrome

Loading…

Następne Przeloty (najbliższe 24 godziny)

TLE

ŚwieżeSource: Space-Track

Epoka: Sep 14, 2026, 10:10 UTC

1 05213U 71041D   26257.42416735  .00000005  00000-0  13468-3 0  9998
2 05213  74.0156 145.7311 0043065 305.3509 166.3865 12.51149494528315

Śledź COSMOS 414 w czasie rzeczywistym z AllMySat

Download on the App Store